Location: Cypress Hills Dark-Sky Preserve - CHICO
(49.6176°N, 110.2634°W)
Time: 13:34:41
(UTC-07:00)

Amateur Radio Satellites - All Passes

Search period start: 20 January 2018 13:04
Search period end: 21 January 2018 13:04
Location: Cypress Hills Dark-Sky Preserve - CHICO, 49.6176°N, 110.2634°W

Satellite Date Start Highest point End Downlink Frequencies (MHz)
Time Altitude Azimuth
PCSat 20 Jan 13:13:26 13:17:11 19° 335° (NNW) 13:20:58 145.827
AO-7 20 Jan 13:27:34 13:35:16 43° 55° (NE) 13:43:00 .
ITAMSAT 1 20 Jan 13:34:04 13:37:18 17° 54° (NE) 13:40:33 435.822/435.867
50 SAT 20 Jan 13:40:49 13:43:03 18° 94° (E) 13:45:15 437.505
BUGSAT 1 20 Jan 13:41:13 13:44:15 20° 268° (W) 13:47:20 437.445
Gurwin Techsat 1B 20 Jan 13:48:03 13:53:08 45° 261° (W) 13:58:15 435.225
BEESAT 3 20 Jan 13:48:36 13:48:43 10° 349° (N) 13:48:51 437.485
AO-85 20 Jan 14:03:43 14:07:30 34° 323° (NW) 14:11:35 145.980
SO-50 20 Jan 14:04:03 14:08:45 87° 233° (SW) 14:13:31 436.795
Oscar 19 20 Jan 14:07:09 14:11:23 25° 267° (W) 14:15:40 437.125/150
M-CUBED/EXP-1 PRIME 20 Jan 14:13:31 14:15:03 12° 51° (NE) 14:16:33 437.505
VELOX 1 20 Jan 14:15:20 14:19:23 36° 293° (WNW) 14:23:25 145.980
SPROUT 20 Jan 14:16:37 14:19:52 21° 298° (WNW) 14:23:06 437.525
UKube-1 20 Jan 14:21:52 14:25:55 39° 98° (E) 14:29:58 .
MOZHAYETS 4 20 Jan 14:28:15 14:31:16 17° 89° (E) 14:34:14
DX 1 20 Jan 14:32:35 14:36:57 79° 104° (ESE) 14:41:18 434.975-435.025
BEESAT 20 Jan 14:34:12 14:35:34 11° 86° (E) 14:36:54 436.000
BEESAT 2 20 Jan 14:34:18 14:35:22 11° 347° (NNW) 14:36:26 435.950
PCSat 20 Jan 15:00:40 15:02:52 12° 1° (N) 15:05:03 145.827
ITAMSAT 1 20 Jan 15:10:54 15:16:04 89° 87° (E) 15:21:17 435.822/435.867
50 SAT 20 Jan 15:12:04 15:14:49 28° 292° (WNW) 15:17:34 437.505
RS-15 20 Jan 15:17:17 15:28:56 51° 29° (NNE) 15:39:58 29.354- 29.394
AO-7 20 Jan 15:19:38 15:27:50 58° 257° (WSW) 15:36:06 .
DOVE 4 20 Jan 15:26:06 15:29:50 31° 67° (ENE) 15:33:31 437.250
BEESAT 3 20 Jan 15:27:14 15:28:03 10° 13° (NNE) 15:28:51 437.485
ITUPSAT 1 20 Jan 15:29:32 15:33:57 34° 97° (E) 15:38:20 437.325
M-CUBED/EXP-1 PRIME 20 Jan 15:44:34 15:48:52 77° 70° (ENE) 15:52:53 437.505
SO-50 20 Jan 15:45:58 15:48:33 15° 250° (WSW) 15:51:10 436.795
AO-85 20 Jan 15:46:57 15:49:16 14° 347° (NNW) 15:51:41 145.980
HO-68 20 Jan 15:52:53 15:56:51 16° 42° (NE) 16:00:48 435.675
UKube-1 20 Jan 15:58:11 16:01:47 26° 297° (WNW) 16:05:22 .
XW-2B 20 Jan 16:03:12 16:04:38 12° 59° (ENE) 16:06:05 145.730 - 145.750
MOZHAYETS 4 20 Jan 16:04:15 16:08:53 67° 288° (WNW) 16:13:28
CUBESAT XI-V 20 Jan 16:06:19 16:10:40 38° 97° (E) 16:14:57 437.345
BEESAT 20 Jan 16:09:17 16:14:08 79° 105° (ESE) 16:18:55 436.000
DX 1 20 Jan 16:10:05 16:12:34 15° 303° (WNW) 16:15:03 434.975-435.025
BEESAT 2 20 Jan 16:14:06 16:14:53 10° 11° (NNE) 16:15:42 435.950
LilacSat-2 20 Jan 16:28:56 16:31:59 23° 65° (ENE) 16:35:02 437.200
XW-2C 20 Jan 16:31:40 16:34:40 22° 65° (ENE) 16:37:41 145.795 - 145.815
CUTE-I 20 Jan 16:41:58 16:46:39 33° 63° (ENE) 16:51:21 437.470
PCSat 20 Jan 16:44:30 16:48:28 20° 27° (NNE) 16:52:26 145.827
ITAMSAT 1 20 Jan 16:53:30 16:56:16 14° 273° (W) 16:59:03 435.822/435.867
CUTE 1.7 + AOD 2 20 Jan 16:57:31 17:00:06 16° 59° (ENE) 17:02:39 437.475
BEESAT 3 20 Jan 17:03:28 17:06:52 26° 36° (NE) 17:10:13 437.485
DOVE 4 20 Jan 17:03:49 17:07:33 29° 265° (W) 17:11:13 437.250
CUBEBUG 2 20 Jan 17:06:24 17:08:47 14° 56° (ENE) 17:11:14 437.445
KAITUO 1B 20 Jan 17:06:38 17:10:06 35° 69° (ENE) 17:13:34 145.475/437.950
ITUPSAT 1 20 Jan 17:07:23 17:11:46 35° 295° (WNW) 17:16:06 437.325
XW-2F 20 Jan 17:07:33 17:11:13 47° 71° (ENE) 17:14:54 145.980 - 146.000
UWE-3 20 Jan 17:14:10 17:15:03 10° 53° (NE) 17:15:56 435.000/436.395/437.385
XW-2D 20 Jan 17:16:49 17:20:37 67° 75° (ENE) 17:24:26 145.860 - 145.880
NUDT-PHONESAT 20 Jan 17:18:05 17:21:39 44° 71° (ENE) 17:25:14 437.300
AO-7 20 Jan 17:19:18 17:22:30 12° 279° (W) 17:25:43 .
M-CUBED/EXP-1 PRIME 20 Jan 17:21:31 17:23:37 13° 264° (W) 17:25:39 437.505
AO-85 20 Jan 17:29:15 17:31:36 14° 12° (NNE) 17:34:01 145.980
RS-15 20 Jan 17:30:31 17:42:18 75° 237° (WSW) 17:53:24 29.354- 29.394
XW-2B 20 Jan 17:34:23 17:38:13 82° 254° (WSW) 17:42:04 145.730 - 145.750
KKS-1 20 Jan 17:35:37 17:39:55 45° 99° (E) 17:44:11 437.445
HO-68 20 Jan 17:36:12 17:43:09 56° 64° (ENE) 17:50:06 435.675
ZACube-1 20 Jan 17:39:13 17:39:28 10° 53° (NE) 17:39:43 437.345
MOZHAYETS 4 20 Jan 17:43:47 17:45:10 11° 307° (NW) 17:46:32
CUBESAT XI-V 20 Jan 17:43:54 17:47:55 29° 296° (WNW) 17:51:52 437.345
AO-73 20 Jan 17:45:40 17:46:24 10° 53° (NE) 17:47:07 145.935
BEESAT 20 Jan 17:48:12 17:51:19 17° 303° (WNW) 17:54:26 436.000
BEESAT 2 20 Jan 17:50:36 17:53:59 25° 35° (NE) 17:57:19 435.950
STARS 20 Jan 17:52:38 17:56:30 29° 95° (E) 18:00:21 437.465
NO-84 20 Jan 18:02:10 18:05:05 47° 144° (SE) 18:07:52 435.350 FM
LilacSat-2 20 Jan 18:02:29 18:06:05 36° 263° (W) 18:09:41 437.200
AAUSAT CUBESAT 2 20 Jan 18:03:09 18:06:04 19° 62° (ENE) 18:08:59 437.432
XW-2C 20 Jan 18:05:06 18:08:40 36° 263° (W) 18:12:15 145.795 - 145.815
Oscar 11 20 Jan 18:17:50 18:19:49 13° 56° (ENE) 18:21:48 .
SEEDS 20 Jan 18:19:13 18:23:21 55° 72° (ENE) 18:27:29 437.485
CUTE-I 20 Jan 18:21:31 18:26:35 43° 262° (W) 18:31:39 437.470
PCSat 20 Jan 18:27:30 18:32:56 64° 50° (NE) 18:38:19 145.827
CUTE 1.7 + AOD 2 20 Jan 18:31:09 18:35:25 71° 259° (WSW) 18:39:41 437.475
CUBEBUG 2 20 Jan 18:40:18 18:44:42 88° 247° (WSW) 18:49:19 437.445
BEESAT 3 20 Jan 18:40:47 18:44:36 50° 237° (WSW) 18:48:21 437.485
KAITUO 1B 20 Jan 18:41:15 18:44:10 21° 267° (W) 18:47:06 145.475/437.950
XW-2F 20 Jan 18:43:04 18:45:34 17° 269° (W) 18:48:05 145.980 - 146.000
UWE-3 20 Jan 18:46:09 18:50:34 64° 73° (ENE) 18:55:07 435.000/436.395/437.385
NUDT-PHONESAT 20 Jan 18:53:12 18:55:42 17° 269° (W) 18:58:13 437.300
XW-2D 20 Jan 18:53:36 18:55:13 12° 272° (W) 18:56:49 145.860 - 145.880
STRAND 1 20 Jan 18:57:02 19:01:02 22° 91° (E) 19:05:01 437.568
AO-85 20 Jan 19:09:16 19:13:28 30° 35° (NE) 19:17:54 145.980
ZACube-1 20 Jan 19:10:23 19:14:47 61° 72° (ENE) 19:19:18 437.345
KKS-1 20 Jan 19:12:39 19:16:14 24° 298° (WNW) 19:19:49 437.445
XW-2A 20 Jan 19:15:43 19:19:09 83° 76° (ENE) 19:22:35 145.665 - 145.685
AO-73 20 Jan 19:17:17 19:21:42 63° 72° (ENE) 19:26:13 145.935
HO-68 20 Jan 19:24:42 19:31:10 36° 265° (W) 19:37:41 435.675
BEESAT 2 20 Jan 19:28:01 19:32:00 60° 236° (SW) 19:35:55 435.950
STARS 20 Jan 19:28:51 19:32:53 36° 294° (WNW) 19:36:55 437.465
FO-29 20 Jan 19:29:53 19:33:34 19° 89° (E) 19:37:14 435.910
AAUSAT CUBESAT 2 20 Jan 19:37:07 19:41:10 52° 260° (W) 19:45:13 437.432
NO-84 20 Jan 19:39:33 19:42:17 36° 344° (NNW) 19:44:57 435.350 FM
RS-15 20 Jan 19:44:37 19:52:31 22° 262° (W) 20:00:12 29.354- 29.394
Oscar 11 20 Jan 19:50:55 19:55:16 87° 80° (E) 19:59:39 .
SEEDS 20 Jan 19:56:33 19:59:22 17° 270° (W) 20:02:11 437.485
PCSat 20 Jan 20:11:33 20:15:55 25° 250° (WSW) 20:20:16 145.827
DELFI C3 20 Jan 20:15:54 20:19:23 32° 68° (ENE) 20:22:54 145.870
CUBEBUG 2 20 Jan 20:20:39 20:22:05 11° 276° (W) 20:23:31 437.445
UWE-3 20 Jan 20:24:34 20:27:29 17° 272° (W) 20:30:27 435.000/436.395/437.385
nSIGHT-1 20 Jan 20:26:33 20:28:07 13° 137° (SE) 20:29:41 .
STRAND 1 20 Jan 20:35:32 20:40:36 59° 290° (WNW) 20:45:39 437.568
ISS 20 Jan 20:39:13 20:40:42 12° 136° (SE) 20:42:10 437.550
ZACube-1 20 Jan 20:48:27 20:51:28 18° 271° (W) 20:54:34 437.345
AO-85 20 Jan 20:49:25 20:54:16 68° 235° (SW) 20:59:26 145.980
AO-73 20 Jan 20:55:24 20:58:22 17° 271° (W) 21:01:22 145.935
Max Valier Satellite 20 Jan 20:56:42 21:00:22 59° 73° (ENE) 21:04:04 145.860
YUBILEINY 20 Jan 21:00:15 21:00:56 10° 65° (ENE) 21:01:36 435.215
TIGRISAT 20 Jan 21:02:54 21:05:54 16° 88° (E) 21:08:52 435.000
FO-29 20 Jan 21:14:04 21:19:17 64° 290° (WNW) 21:24:25 435.910
EO-88 20 Jan 21:15:50 21:19:27 65° 74° (ENE) 21:23:06 145.990 - 145.960
NO-84 20 Jan 21:17:25 21:19:55 27° 5° (N) 21:22:24 435.350 FM
UNISAT 6 20 Jan 21:17:34 21:21:24 24° 92° (E) 21:25:12 437.425
Oscar 11 20 Jan 21:30:30 21:32:02 12° 274° (W) 21:33:35 .
DELFI C3 20 Jan 21:50:54 21:54:10 25° 266° (W) 21:57:27 145.870
nSIGHT-1 20 Jan 22:00:39 22:03:46 60° 156° (SSE) 22:06:55 .
ESTCUBE 1 20 Jan 22:04:09 22:08:11 32° 65° (ENE) 22:12:13 437.505/2401.250
ISS 20 Jan 22:13:24 22:16:37 57° 154° (SSE) 22:19:51 437.550
STRAND 1 20 Jan 22:17:06 22:18:46 12° 310° (NW) 22:20:25 437.568
AO-85 20 Jan 22:32:03 22:33:58 12° 252° (WSW) 22:35:55 145.980
Max Valier Satellite 20 Jan 22:32:40 22:34:32 13° 271° (W) 22:36:26 145.860
LO-87 20 Jan 22:35:22 22:38:55 74° 74° (ENE) 22:42:31 145.935 - 145.965
TIGRISAT 20 Jan 22:38:22 22:43:04 71° 287° (WNW) 22:47:45 435.000
YUBILEINY 20 Jan 22:47:04 22:55:24 49° 88° (E) 23:03:43 435.215
EO-88 20 Jan 22:52:10 22:53:29 12° 272° (W) 22:54:50 145.990 - 145.960
UNISAT 6 20 Jan 22:53:47 22:58:19 48° 291° (WNW) 23:02:50 437.425
NO-84 20 Jan 22:54:35 22:57:24 67° 26° (NNE) 23:00:15 435.350 FM
FO-29 20 Jan 23:01:33 23:03:22 12° 311° (NW) 23:05:11 435.910
PRISM 20 Jan 23:06:29 23:10:32 60° 101° (ESE) 23:14:33 437.425
POLYITAN 1 20 Jan 23:17:37 23:20:00 14° 89° (E) 23:22:23 437.675
NANOSAT C BR1 20 Jan 23:32:49 23:35:47 18° 91° (E) 23:38:44 145.865
nSIGHT-1 20 Jan 23:36:51 23:40:00 59° 356° (N) 23:43:08 .
SPROUT 20 Jan 23:37:01 23:41:13 65° 73° (ENE) 23:45:28 437.525
VELOX 1 20 Jan 23:40:02 23:44:10 42° 68° (ENE) 23:48:18 145.980
AIST 2D 20 Jan 23:40:40 23:44:09 77° 102° (ESE) 23:47:36 435.315
ESTCUBE 1 20 Jan 23:40:51 23:44:56 33° 264° (W) 23:49:04 437.505/2401.250
QB50P2 20 Jan 23:46:17 23:50:05 30° 95° (E) 23:53:51 145.880/145.840
ISS 20 Jan 23:49:53 23:53:08 61° 354° (N) 23:56:23 437.550
DX 1 20 Jan 23:57:51 00:00:35 17° 58° (ENE) 00:03:19 434.975-435.025
O/OREOS (USA 219) 20 Jan 23:59:50 00:03:09 20° 102° (ESE) 00:06:28 437.305
50 SAT 21 Jan 00:10:18 00:11:32 12° 61° (ENE) 00:12:45 437.505
DUCHIFAT 1 21 Jan 00:15:48 00:19:50 40° 98° (E) 00:23:51 145.980
EO-79 21 Jan 00:16:56 00:21:10 54° 100° (E) 00:25:21 145.935-145.965
TIGRISAT 21 Jan 00:17:06 00:18:55 12° 306° (NW) 00:20:43 435.000
NO-84 21 Jan 00:32:13 00:34:17 18° 224° (SW) 00:36:22 435.350 FM
Oscar 19 21 Jan 00:35:32 00:37:54 13° 86° (E) 00:40:15 437.125/150
PRISM 21 Jan 00:42:45 00:45:23 17° 300° (WNW) 00:48:01 437.425
YUBILEINY 21 Jan 00:43:53 00:52:18 47° 291° (WNW) 01:00:44 435.215
AO-91 21 Jan 00:44:32 00:47:24 17° 91° (E) 00:50:27 145.960
POLYITAN 1 21 Jan 00:51:57 00:56:15 69° 287° (WNW) 01:00:31 437.675
ITUPSAT 1 21 Jan 01:06:19 01:07:58 12° 52° (NE) 01:09:37 437.325
NANOSAT C BR1 21 Jan 01:07:37 01:11:49 54° 289° (WNW) 01:15:58 145.865
nSIGHT-1 21 Jan 01:13:09 01:16:20 78° 15° (NNE) 01:19:31 .
SPROUT 21 Jan 01:15:03 01:17:33 15° 271° (W) 01:20:04 437.525
AIST 2D 21 Jan 01:16:03 01:16:45 10° 301° (WNW) 01:17:28 435.315
BUGSAT 1 21 Jan 01:16:56 01:21:01 43° 99° (E) 01:25:04 437.445
VELOX 1 21 Jan 01:17:12 01:20:46 24° 266° (W) 01:24:21 145.980
UKube-1 21 Jan 01:20:00 01:24:13 58° 71° (ENE) 01:28:27 .
QB50P2 21 Jan 01:22:01 01:25:52 33° 294° (WNW) 01:29:42 145.880/145.840
ISS 21 Jan 01:26:32 01:29:48 76° 14° (NNE) 01:33:05 437.550
DX 1 21 Jan 01:31:58 01:36:16 70° 257° (WSW) 01:40:37 434.975-435.025
MOZHAYETS 4 21 Jan 01:33:48 01:37:42 27° 63° (ENE) 01:41:37
O/OREOS (USA 219) 21 Jan 01:37:46 01:42:11 54° 301° (WNW) 01:46:37 437.305
50 SAT 21 Jan 01:39:51 01:42:51 49° 259° (W) 01:45:53 437.505
CUBESAT XI-V 21 Jan 01:40:35 01:41:30 11° 52° (NE) 01:42:25 437.345
BEESAT 21 Jan 01:43:25 01:47:08 23° 60° (ENE) 01:50:51 436.000
DUCHIFAT 1 21 Jan 01:51:49 01:55:18 25° 296° (WNW) 01:58:47 145.980
EO-79 21 Jan 01:53:27 01:56:34 20° 299° (WNW) 01:59:40 145.935-145.965
Gurwin Techsat 1B 21 Jan 01:59:23 02:04:35 51° 100° (E) 02:09:45 435.225
Oscar 19 21 Jan 02:12:49 02:18:03 84° 105° (ESE) 02:23:13 437.125/150
AO-91 21 Jan 02:19:52 02:24:10 67° 287° (WNW) 02:28:57 145.960
POLYITAN 1 21 Jan 02:30:25 02:31:13 10° 306° (NW) 02:32:00 437.675
ITUPSAT 1 21 Jan 02:40:09 02:44:53 66° 71° (ENE) 02:49:40 437.325
YUBILEINY 21 Jan 02:48:21 02:51:58 13° 318° (NW) 02:55:37 435.215
nSIGHT-1 21 Jan 02:49:30 02:52:19 29° 214° (SSW) 02:55:07 .
BUGSAT 1 21 Jan 02:52:45 02:56:08 24° 297° (WNW) 02:59:32 437.445
UKube-1 21 Jan 02:57:44 03:00:35 17° 269° (W) 03:03:28 .
ISS 21 Jan 03:03:09 03:06:07 32° 213° (SSW) 03:09:05 437.550
KKS-1 21 Jan 03:04:43 03:06:06 11° 53° (NE) 03:07:30 437.445
MOZHAYETS 4 21 Jan 03:10:16 03:14:40 43° 262° (W) 03:19:07
CUBESAT XI-V 21 Jan 03:13:19 03:17:57 62° 72° (ENE) 03:22:35 437.345
AO-7 21 Jan 03:16:08 03:23:52 39° 97° (E) 03:31:30 .
ITAMSAT 1 21 Jan 03:19:51 03:23:54 22° 92° (E) 03:27:56 435.822/435.867
BEESAT 21 Jan 03:19:53 03:24:33 56° 259° (W) 03:29:17 436.000
O/OREOS (USA 219) 21 Jan 03:21:05 03:22:39 12° 323° (NW) 03:24:14 437.305
Gurwin Techsat 1B 21 Jan 03:39:47 03:44:18 29° 299° (WNW) 03:48:47 435.225
Oscar 19 21 Jan 03:53:16 03:56:44 18° 304° (NW) 04:00:10 437.125/150
AO-91 21 Jan 03:59:10 03:59:59 10° 303° (WNW) 04:00:49 145.960
ITUPSAT 1 21 Jan 04:19:53 04:23:10 18° 270° (W) 04:26:27 437.325
KKS-1 21 Jan 04:37:28 04:41:52 72° 72° (ENE) 04:46:18 437.445
CUBESAT XI-V 21 Jan 04:52:27 04:55:44 19° 270° (W) 04:59:00 437.345
STARS 21 Jan 04:52:59 04:57:07 44° 68° (ENE) 05:01:17 437.465
M-CUBED/EXP-1 PRIME 21 Jan 04:53:35 04:56:12 20° 100° (E) 04:58:44 437.505
DOVE 4 21 Jan 04:56:35 05:00:46 47° 99° (E) 05:05:08 437.250
ITAMSAT 1 21 Jan 04:58:38 05:03:45 60° 290° (WNW) 05:08:51 435.822/435.867
AO-7 21 Jan 05:08:48 05:17:01 61° 298° (WNW) 05:25:09 .
LilacSat-2 21 Jan 05:31:43 05:34:18 17° 91° (E) 05:36:53 437.200
XW-2C 21 Jan 05:33:39 05:36:10 17° 91° (E) 05:38:39 145.795 - 145.815
FO-29 21 Jan 05:47:16 05:51:36 19° 56° (NE) 05:55:38 435.910
RS-15 21 Jan 05:57:27 06:00:01 11° 89° (E) 06:02:34 29.354- 29.394
SO-50 21 Jan 06:02:06 06:06:31 65° 125° (SE) 06:11:03 436.795
KAITUO 1B 21 Jan 06:06:58 06:10:10 27° 95° (E) 06:13:19 145.475/437.950
XW-2F 21 Jan 06:09:01 06:12:31 36° 97° (E) 06:15:58 145.980 - 146.000
CUTE 1.7 + AOD 2 21 Jan 06:12:41 06:15:09 15° 89° (E) 06:17:36 437.475
KKS-1 21 Jan 06:16:29 06:18:56 15° 271° (W) 06:21:24 437.445
STRAND 1 21 Jan 06:16:50 06:21:43 48° 67° (ENE) 06:26:38 437.568
NUDT-PHONESAT 21 Jan 06:17:18 06:20:40 32° 97° (E) 06:23:58 437.300
XW-2D 21 Jan 06:18:51 06:22:34 53° 100° (E) 06:26:14 145.860 - 145.880
CUBEBUG 2 21 Jan 06:27:28 06:30:31 17° 88° (E) 06:33:34 437.445
M-CUBED/EXP-1 PRIME 21 Jan 06:27:40 06:30:42 30° 299° (WNW) 06:33:37 437.505
STARS 21 Jan 06:30:11 06:33:38 23° 267° (W) 06:37:09 437.465
CUTE-I 21 Jan 06:33:33 06:38:47 53° 101° (E) 06:44:00 437.470
UWE-3 21 Jan 06:33:44 06:34:54 11° 84° (E) 06:36:04 435.000/436.395/437.385
DOVE 4 21 Jan 06:34:54 06:38:15 22° 296° (WNW) 06:41:42 437.250
XW-2B 21 Jan 06:36:27 06:40:14 81° 103° (ESE) 06:43:58 145.730 - 145.750
ITAMSAT 1 21 Jan 06:40:20 06:42:13 12° 311° (NW) 06:44:05 435.822/435.867
HO-68 21 Jan 06:46:33 06:53:10 39° 96° (E) 06:59:45 435.675
AO-7 21 Jan 07:02:38 07:08:12 20° 322° (NW) 07:13:46 .
LilacSat-2 21 Jan 07:05:11 07:08:49 44° 289° (WNW) 07:12:23 437.200
XW-2C 21 Jan 07:06:57 07:10:35 45° 289° (WNW) 07:14:10 145.795 - 145.815
AAUSAT CUBESAT 2 21 Jan 07:15:18 07:18:07 18° 90° (E) 07:20:56 437.432
FO-29 21 Jan 07:29:21 07:36:05 87° 74° (ENE) 07:42:01 435.910
SEEDS 21 Jan 07:33:55 07:38:03 59° 101° (E) 07:42:09 437.485
Oscar 11 21 Jan 07:35:29 07:37:18 12° 87° (E) 07:39:06 .
KAITUO 1B 21 Jan 07:40:56 07:44:06 27° 293° (WNW) 07:47:14 145.475/437.950
SO-50 21 Jan 07:43:27 07:47:21 28° 327° (NNW) 07:51:20 436.795
XW-2F 21 Jan 07:43:32 07:46:25 21° 296° (WNW) 07:49:17 145.980 - 146.000
CUTE 1.7 + AOD 2 21 Jan 07:47:14 07:51:26 64° 287° (WNW) 07:55:34 437.475
NUDT-PHONESAT 21 Jan 07:51:24 07:54:20 23° 295° (WNW) 07:57:15 437.300
XW-2D 21 Jan 07:53:59 07:56:21 16° 298° (WNW) 07:58:41 145.860 - 145.880
STRAND 1 21 Jan 07:56:51 08:01:08 27° 267° (W) 08:05:27 437.568
RS-15 21 Jan 07:57:41 08:09:12 49° 112° (ESE) 08:20:32 29.354- 29.394
CUBEBUG 2 21 Jan 08:02:52 08:07:37 71° 287° (WNW) 08:12:20 437.445
XW-2A 21 Jan 08:05:23 08:08:39 44° 99° (E) 08:11:52 145.665 - 145.685
TIGRISAT 21 Jan 08:05:28 08:09:00 23° 62° (ENE) 08:12:37 435.000
UWE-3 21 Jan 08:07:24 08:12:08 79° 104° (ESE) 08:16:46 435.000/436.395/437.385
XW-2B 21 Jan 08:12:28 08:13:49 12° 302° (WNW) 08:15:09 145.730 - 145.750
CUTE-I 21 Jan 08:14:07 08:18:33 28° 300° (WNW) 08:22:59 437.470
UNISAT 6 21 Jan 08:20:16 08:24:16 33° 66° (ENE) 08:28:23 437.425
O/OREOS (USA 219) 21 Jan 08:25:43 08:28:27 16° 42° (NE) 08:31:10 437.305
PRISM 21 Jan 08:28:08 08:28:52 10° 55° (NE) 08:29:37 437.425
ZACube-1 21 Jan 08:30:15 08:34:51 73° 102° (ESE) 08:39:22 437.345
HO-68 21 Jan 08:34:13 08:41:07 53° 297° (WNW) 08:48:00 435.675
AO-73 21 Jan 08:36:46 08:41:22 75° 103° (ESE) 08:45:51 145.935
AAUSAT CUBESAT 2 21 Jan 08:49:52 08:53:52 51° 289° (WNW) 08:57:50 437.432
YUBILEINY 21 Jan 08:51:28 08:59:04 32° 62° (ENE) 09:06:36 435.215
Oscar 11 21 Jan 09:09:41 09:14:01 82° 287° (WNW) 09:18:20 .
SEEDS 21 Jan 09:10:33 09:13:19 17° 299° (WNW) 09:16:04 437.485
PCSat 21 Jan 09:14:38 09:18:44 22° 108° (ESE) 09:22:52 145.827
FO-29 21 Jan 09:17:20 09:21:46 19° 271° (W) 09:25:55 435.910
DELFI C3 21 Jan 09:22:28 09:25:54 28° 95° (E) 09:29:19 145.870
SO-50 21 Jan 09:27:01 09:29:19 13° 351° (N) 09:31:36 436.795
XW-2A 21 Jan 09:39:01 09:41:00 15° 297° (WNW) 09:42:58 145.665 - 145.685
TIGRISAT 21 Jan 09:41:05 09:45:23 49° 261° (W) 09:49:50 435.000
CUBEBUG 2 21 Jan 09:41:30 09:43:23 12° 306° (NW) 09:45:17 437.445
EO-79 21 Jan 09:41:41 09:42:15 10° 54° (NE) 09:42:50 145.935-145.965
UWE-3 21 Jan 09:45:02 09:47:59 17° 302° (WNW) 09:50:54 435.000/436.395/437.385
Max Valier Satellite 21 Jan 09:55:46 09:59:20 43° 98° (E) 10:02:51 145.860
UNISAT 6 21 Jan 09:56:57 10:00:58 32° 265° (W) 10:05:05 437.425
PRISM 21 Jan 09:59:21 10:03:24 76° 75° (ENE) 10:07:29 437.425
O/OREOS (USA 219) 21 Jan 10:04:05 10:08:36 84° 65° (ENE) 10:13:04 437.305
ZACube-1 21 Jan 10:07:37 10:10:35 17° 301° (WNW) 10:13:31 437.345
RS-15 21 Jan 10:09:04 10:21:23 69° 318° (NW) 10:33:25 29.354- 29.394
BEESAT 3 21 Jan 10:10:21 10:14:17 63° 125° (SE) 10:18:14 437.485
EO-88 21 Jan 10:13:22 10:16:53 44° 99° (E) 10:20:22 145.990 - 145.960
POLYITAN 1 21 Jan 10:13:54 10:16:59 20° 61° (ENE) 10:20:07 437.675
AO-73 21 Jan 10:14:09 10:17:02 17° 301° (WNW) 10:19:52 145.935
AIST 2D 21 Jan 10:18:20 10:21:46 51° 73° (ENE) 10:25:12 435.315
HO-68 21 Jan 10:23:39 10:27:21 15° 319° (NW) 10:31:02 435.675
NANOSAT C BR1 21 Jan 10:28:40 10:32:03 24° 63° (ENE) 10:35:27 145.865
QB50P2 21 Jan 10:42:36 10:46:32 38° 68° (ENE) 10:50:31 145.880/145.840
Oscar 11 21 Jan 10:47:46 10:49:27 12° 304° (NW) 10:51:07 .
YUBILEINY 21 Jan 10:48:02 10:56:44 73° 265° (W) 11:05:21 435.215
PCSat 21 Jan 10:56:13 11:01:38 71° 308° (NW) 11:07:05 145.827
DELFI C3 21 Jan 10:57:11 11:00:36 29° 293° (WNW) 11:04:01 145.870
BEESAT 2 21 Jan 10:59:33 11:03:29 56° 124° (SE) 11:07:29 435.950
SO-50 21 Jan 11:08:53 11:11:39 15° 16° (NNE) 11:14:26 436.795
AO-85 21 Jan 11:10:43 11:12:18 12° 108° (ESE) 11:13:56 145.980
DUCHIFAT 1 21 Jan 11:11:11 11:15:16 51° 71° (ENE) 11:19:24 145.980
EO-79 21 Jan 11:12:59 11:17:11 69° 73° (ENE) 11:21:27 145.935-145.965
ESTCUBE 1 21 Jan 11:28:18 11:32:29 37° 97° (E) 11:36:38 437.505/2401.250
Max Valier Satellite 21 Jan 11:30:15 11:32:52 18° 297° (WNW) 11:35:27 145.860
LO-87 21 Jan 11:30:52 11:34:25 48° 99° (E) 11:37:57 145.935 - 145.965
PRISM 21 Jan 11:37:36 11:39:11 12° 272° (W) 11:40:47 437.425
O/OREOS (USA 219) 21 Jan 11:45:19 11:47:19 13° 262° (W) 11:49:19 437.305
Gurwin Techsat 1B 21 Jan 11:46:45 11:50:45 22° 58° (ENE) 11:54:46 435.225
AO-91 21 Jan 11:47:04 11:49:18 17° 61° (ENE) 11:51:37 145.960
EO-88 21 Jan 11:47:47 11:50:13 17° 297° (WNW) 11:52:38 145.990 - 145.960
POLYITAN 1 21 Jan 11:48:16 11:52:25 53° 260° (W) 11:56:38 437.675
BEESAT 3 21 Jan 11:48:50 11:52:08 24° 326° (NW) 11:55:25 437.485
AIST 2D 21 Jan 11:53:27 11:55:13 13° 270° (W) 11:57:00 435.315
Oscar 19 21 Jan 11:55:36 12:00:07 31° 62° (ENE) 12:04:40 437.125/150
NANOSAT C BR1 21 Jan 12:03:32 12:07:33 42° 262° (W) 12:11:36 145.865
BUGSAT 1 21 Jan 12:10:21 12:14:19 52° 70° (ENE) 12:18:23 437.445
QB50P2 21 Jan 12:18:55 12:22:26 25° 266° (W) 12:25:59 145.880/145.840
RS-15 21 Jan 12:25:04 12:36:23 40° 349° (N) 12:47:19 29.354- 29.394
AO-7 21 Jan 12:30:03 12:36:17 24° 43° (NE) 12:42:32 .
BEESAT 2 21 Jan 12:38:02 12:41:29 26° 325° (NW) 12:44:56 435.950
PCSat 21 Jan 12:41:53 12:45:59 21° 331° (NNW) 12:50:06 145.827
YUBILEINY 21 Jan 12:46:46 12:51:56 17° 288° (WNW) 12:57:03 435.215
AO-85 21 Jan 12:47:51 12:51:54 89° 129° (SE) 12:56:18 145.980
DUCHIFAT 1 21 Jan 12:48:14 12:51:14 19° 269° (W) 12:54:15 145.980
SO-50 21 Jan 12:48:57 12:53:20 39° 39° (NE) 12:57:47 436.795
EO-79 21 Jan 12:51:08 12:53:26 14° 272° (W) 12:55:44 145.935-145.965
SPROUT 21 Jan 12:53:42 12:58:00 69° 102° (ESE) 13:02:17 437.525
